User: anonymous   Login
Location: Unspecified
(0.0000°N, 0.0000°E)
Time: 16:09:20
(UTC+00:00)
Language:

Tiros 3 - Orbit

View from above orbital plane
View from above orbital plane
View from above satellite
View from above satellite

Ground track
Ground track

The orbit data is extracted from the following two-line orbital elements,

1   162U 61017A   18053.58358404 -.00000122 +00000-0 +12019-4 0  9991
2   162 047.8995 118.8178 0044397 122.6577 237.8610 14.43995874952821
Epoch (UTC): 22 February 2018 14:00:21
Eccentricity: 0.0044397
inclination: 47.8995°
perigee height: 714 km
apogee height: 777 km
right ascension of ascending node: 118.8178°
argument of perigee: 122.6577°
revolutions per day: 14.43995874
mean anomaly at epoch: 237.8610°
orbit number at epoch: 95282

The dashed part of the orbit path shows where the satellite is in the earth's shadow,  

DLR